timestamp,surface_pressure_avg,surface_temp_avg,battery_voltage,lat,long
2021-09-06 00:09:01+00:00,351.348,17.0,12.89,47.84626,-54.09684
2021-09-06 00:19:01+00:00,350.6696,16.99,12.73,47.84626,-54.09684
2021-09-06 00:29:01+00:00,347.9979,16.96,12.73,47.84626,-54.09684
2021-09-06 00:39:01+00:00,340.9847,16.99,12.73,47.84626,-54.09684
2021-09-06 00:49:01+00:00,333.8412,16.99,12.73,47.84626,-54.09684
2021-09-06 00:59:01+00:00,330.6896,17.0,12.73,47.84626,-54.09684
2021-09-06 01:09:01+00:00,327.7996,17.0,12.73,47.84626,-54.09684
2021-09-06 01:19:01+00:00,320.0163,17.0,12.73,47.84626,-54.09684
2021-09-06 01:29:01+00:00,311.9014,17.0,12.73,47.84626,-54.09684
2021-09-06 01:39:01+00:00,303.9813,17.07,12.73,47.84626,-54.09684
2021-09-06 01:49:01+00:00,293.288,17.1,12.73,47.84626,-54.09684
2021-09-06 01:59:01+00:00,283.9731,17.14,12.73,47.84626,-54.09684
2021-09-06 02:09:01+00:00,278.5414,17.15,12.73,47.84626,-54.09684
2021-09-06 02:19:00+00:00,272.6647,17.18,12.73,47.84626,-54.09684
2021-09-06 02:29:00+00:00,259.448,17.1,12.73,47.84626,-54.09684
2021-09-06 02:39:00+00:00,252.3748,17.16,12.73,47.84626,-54.09684
2021-09-06 02:49:00+00:00,248.7714,17.18,12.73,47.84626,-54.09684
2021-09-06 02:59:00+00:00,238.7664,17.18,12.73,47.84626,-54.09684
2021-09-06 03:09:00+00:00,226.6497,17.14,12.73,47.84626,-54.09684
2021-09-06 03:19:00+00:00,225.8582,17.1,12.73,47.84626,-54.09684
2021-09-06 03:29:00+00:00,223.9214,17.1,12.73,47.84626,-54.09684
2021-09-06 03:39:00+00:00,212.6864,17.1,12.73,47.84626,-54.09684
2021-09-06 03:49:00+00:00,206.0231,17.09,12.73,47.84626,-54.09684
2021-09-06 03:59:00+00:00,206.4481,17.07,12.73,47.84626,-54.09684
2021-09-06 04:09:00+00:00,199.7865,17.04,12.73,47.84626,-54.09684
2021-09-06 04:19:00+00:00,194.3347,17.0,12.73,47.84626,-54.09684
2021-09-06 04:29:00+00:00,196.9131,17.0,12.73,47.84626,-54.09684
2021-09-06 04:39:00+00:00,194.3181,16.99,12.73,47.84626,-54.09684
2021-09-06 04:49:00+00:00,191.0365,17.0,12.73,47.84626,-54.09684
2021-09-06 04:59:00+00:00,194.0548,17.0,12.73,47.84626,-54.09684
2021-09-06 05:09:00+00:00,192.0081,16.95,12.73,47.84626,-54.09684
2021-09-06 05:19:01+00:00,189.4614,16.9,12.73,47.84626,-54.09684
2021-09-06 05:29:01+00:00,192.3248,16.9,12.73,47.84626,-54.09684
2021-09-06 05:39:01+00:00,193.0181,16.9,12.73,47.84626,-54.09684
2021-09-06 05:49:01+00:00,194.8164,16.88,12.73,47.84626,-54.09684
2021-09-06 05:59:01+00:00,202.8031,16.86,12.73,47.84626,-54.09684
2021-09-06 06:09:01+00:00,208.3131,16.84,12.73,47.84626,-54.09684
2021-09-06 06:19:00+00:00,210.3881,16.8,12.65,47.84626,-54.09684
2021-09-06 06:29:00+00:00,214.5198,16.8,12.65,47.84626,-54.09684
2021-09-06 06:39:00+00:00,215.8831,16.7,12.65,47.84626,-54.09684
2021-09-06 06:49:00+00:00,219.1431,16.7,12.65,47.84626,-54.09684
2021-09-06 06:59:00+00:00,225.6614,16.7,12.65,47.84626,-54.09684
2021-09-06 07:09:00+00:00,226.4181,16.7,12.65,47.84626,-54.09684
2021-09-06 07:19:01+00:00,228.658,16.76,12.65,47.84626,-54.09684
2021-09-06 07:29:01+00:00,235.8498,16.78,12.65,47.84626,-54.09684
2021-09-06 07:39:01+00:00,242.5214,16.79,12.65,47.84626,-54.09684
2021-09-06 07:49:01+00:00,246.3565,16.76,12.65,47.84626,-54.09684
2021-09-06 07:59:01+00:00,250.2215,16.71,12.65,47.84626,-54.09684
2021-09-06 08:09:01+00:00,256.8581,16.7,12.65,47.84626,-54.09684
2021-09-06 08:19:00+00:00,265.5881,16.6,12.65,47.84626,-54.09684
2021-09-06 08:29:00+00:00,270.0015,16.53,12.65,47.84626,-54.09684
2021-09-06 08:39:00+00:00,273.8647,16.56,12.65,47.84626,-54.09684
2021-09-06 08:49:00+00:00,280.9048,16.5,12.65,47.84626,-54.09684
2021-09-06 08:59:00+00:00,288.9247,16.51,12.65,47.84626,-54.09684
2021-09-06 09:09:00+00:00,292.903,16.55,12.65,47.84626,-54.09684
2021-09-06 09:19:01+00:00,299.543,16.57,12.65,47.84626,-54.09684
2021-09-06 09:29:01+00:00,308.3981,16.5,12.65,47.84626,-54.09684
2021-09-06 09:39:01+00:00,313.7313,16.5,12.65,47.84626,-54.09684
2021-09-06 09:49:01+00:00,315.9863,16.52,12.65,47.84626,-54.09684
2021-09-06 09:59:01+00:00,321.0063,16.56,12.65,47.84626,-54.09684
2021-09-06 10:09:01+00:00,326.718,16.58,12.65,47.84626,-54.09684
2021-09-06 10:19:01+00:00,331.4347,16.59,13.53,47.84626,-54.09684
2021-09-06 10:29:01+00:00,336.0662,16.6,13.53,47.84626,-54.09684
2021-09-06 10:39:01+00:00,336.0496,16.6,13.53,47.84626,-54.09684
2021-09-06 10:49:01+00:00,335.608,16.6,13.53,47.84626,-54.09684
2021-09-06 10:59:01+00:00,339.5096,16.5,13.53,47.84626,-54.09684
2021-09-06 11:09:01+00:00,343.9346,16.4,13.53,47.84626,-54.09684
2021-09-06 11:19:01+00:00,339.9398,16.5,14.24,47.84626,-54.09684
2021-09-06 11:29:01+00:00,338.0997,16.4,14.24,47.84626,-54.09684
2021-09-06 11:39:01+00:00,338.8113,16.3,14.24,47.84626,-54.09684
2021-09-06 11:49:01+00:00,336.8013,16.34,14.24,47.84626,-54.09684
2021-09-06 11:59:01+00:00,329.103,16.5,14.24,47.84626,-54.09684
2021-09-06 12:09:01+00:00,330.2396,16.39,14.24,47.84626,-54.09684
2021-09-06 12:19:01+00:00,330.6912,16.27,14.08,47.84626,-54.09684
2021-09-06 12:29:01+00:00,323.1964,16.43,14.08,47.84626,-54.09684
2021-09-06 12:39:01+00:00,319.7596,16.5,14.08,47.84626,-54.09684
2021-09-06 12:49:01+00:00,322.3047,16.4,14.08,47.84626,-54.09684
2021-09-06 12:59:01+00:00,316.318,16.45,14.08,47.84626,-54.09684
2021-09-06 13:09:01+00:00,305.5397,16.5,14.08,47.84626,-54.09684
2021-09-06 13:19:01+00:00,300.908,16.54,14.16,47.84626,-54.09684
2021-09-06 13:29:01+00:00,297.368,16.5,14.16,47.84626,-54.09684
2021-09-06 13:39:01+00:00,289.2513,16.5,14.16,47.84626,-54.09684
2021-09-06 13:49:01+00:00,281.6564,16.53,14.16,47.84626,-54.09684
2021-09-06 13:59:01+00:00,275.8114,16.52,14.16,47.84626,-54.09684
2021-09-06 14:09:01+00:00,267.1031,16.54,14.16,47.84626,-54.09684
2021-09-06 14:19:01+00:00,260.4247,16.56,14.4,47.84626,-54.09684
2021-09-06 14:29:01+00:00,255.4664,16.59,14.4,47.84626,-54.09684
2021-09-06 14:39:01+00:00,250.5648,16.6,14.4,47.84626,-54.09684
2021-09-06 14:49:01+00:00,243.0414,16.6,14.4,47.84626,-54.09684
2021-09-06 14:59:01+00:00,235.7898,16.6,14.4,47.84626,-54.09684
2021-09-06 15:09:01+00:00,226.4347,16.6,14.4,47.84626,-54.09684
2021-09-06 15:19:01+00:00,216.7264,16.6,14.16,47.84626,-54.09684
2021-09-06 15:29:01+00:00,208.0198,16.6,14.16,47.84626,-54.09684
2021-09-06 15:39:01+00:00,201.4514,16.6,14.16,47.84626,-54.09684
2021-09-06 15:49:01+00:00,194.6948,16.6,14.16,47.84626,-54.09684
2021-09-06 15:59:01+00:00,190.4864,16.6,14.16,47.84626,-54.09684
2021-09-06 16:09:01+00:00,191.9881,16.6,14.16,47.84626,-54.09684
2021-09-06 16:19:01+00:00,191.4532,16.64,14.16,47.84626,-54.09684
2021-09-06 16:29:01+00:00,186.2415,16.69,14.16,47.84626,-54.09684
2021-09-06 16:39:01+00:00,181.7481,16.7,14.16,47.84626,-54.09684
2021-09-06 16:49:01+00:00,181.2581,16.7,14.16,47.84626,-54.09684
2021-09-06 16:59:01+00:00,180.0998,16.7,14.16,47.84626,-54.09684
2021-09-06 17:09:01+00:00,177.5798,16.7,14.16,47.84626,-54.09684
2021-09-06 17:19:01+00:00,176.8598,16.7,14.16,47.84626,-54.09684
2021-09-06 17:29:01+00:00,176.8831,16.69,14.16,47.84626,-54.09684
2021-09-06 17:39:01+00:00,179.3731,16.66,14.16,47.84626,-54.09684
2021-09-06 17:49:01+00:00,182.1015,16.6,14.16,47.84626,-54.09684
2021-09-06 17:59:01+00:00,183.2198,16.6,14.16,47.84626,-54.09684
2021-09-06 18:09:01+00:00,189.3964,16.6,14.16,47.84626,-54.09684
2021-09-06 18:19:01+00:00,195.1831,16.6,14.0,47.84626,-54.09684
2021-09-06 18:29:01+00:00,197.1248,16.57,14.0,47.84626,-54.09684
2021-09-06 18:39:01+00:00,199.9648,16.55,14.0,47.84626,-54.09684
2021-09-06 18:49:01+00:00,202.8531,16.58,14.0,47.84626,-54.09684
2021-09-06 18:59:01+00:00,204.0348,16.6,14.0,47.84626,-54.09684
2021-09-06 19:09:01+00:00,208.0148,16.59,14.0,47.84626,-54.09684
2021-09-06 19:19:01+00:00,213.7681,16.5,13.76,47.84626,-54.09684
2021-09-06 19:29:01+00:00,215.0131,16.4,13.76,47.84626,-54.09684
2021-09-06 19:39:01+00:00,218.6248,16.4,13.76,47.84626,-54.09684
2021-09-06 19:49:01+00:00,230.8431,16.4,13.76,47.84626,-54.09684
2021-09-06 19:59:01+00:00,240.7248,16.2,13.76,47.84626,-54.09684
2021-09-06 20:09:01+00:00,242.7298,16.2,13.76,47.84626,-54.09684
2021-09-06 20:19:01+00:00,251.4547,16.2,13.68,47.84626,-54.09684
2021-09-06 20:29:01+00:00,262.6964,16.1,13.68,47.84626,-54.09684
2021-09-06 20:39:01+00:00,268.8881,16.1,13.68,47.84626,-54.09684
2021-09-06 20:49:01+00:00,270.0847,16.22,13.68,47.84626,-54.09684
2021-09-06 20:59:01+00:00,277.6314,16.3,13.68,47.84626,-54.09684
2021-09-06 21:09:01+00:00,284.9197,16.26,13.68,47.84626,-54.09684
2021-09-06 21:19:01+00:00,290.9564,16.27,13.44,47.84626,-54.09684
2021-09-06 21:29:01+00:00,298.8763,16.19,13.44,47.84626,-54.09684
2021-09-06 21:39:01+00:00,312.2064,16.09,13.44,47.84626,-54.09684
2021-09-06 21:49:01+00:00,322.8179,16.0,13.44,47.84626,-54.09684
2021-09-06 21:59:01+00:00,332.338,16.0,13.44,47.84626,-54.09684
2021-09-06 22:09:01+00:00,340.4664,15.94,13.44,47.84626,-54.09684
2021-09-06 22:19:01+00:00,346.858,15.92,13.13,47.84626,-54.09684
2021-09-06 22:29:01+00:00,352.098,15.94,13.13,47.84626,-54.09684
2021-09-06 22:39:01+00:00,354.293,15.95,13.13,47.84626,-54.09684
2021-09-06 22:49:01+00:00,352.9896,15.95,13.13,47.84626,-54.09684
2021-09-06 22:59:01+00:00,354.3412,15.92,13.13,47.84626,-54.09684
2021-09-06 23:09:01+00:00,362.3263,15.9,13.13,47.84626,-54.09684
2021-09-06 23:19:01+00:00,367.5529,15.93,12.81,47.84626,-54.09684
2021-09-06 23:29:01+00:00,364.168,15.96,12.81,47.84626,-54.09684
2021-09-06 23:39:01+00:00,360.8346,15.99,12.81,47.84626,-54.09684
2021-09-06 23:49:01+00:00,365.718,15.99,12.81,47.84626,-54.09684
2021-09-06 23:59:01+00:00,371.1129,16.0,12.81,47.84626,-54.09684
